AFL1016 ULAA-ULLI

Flight info

Callsign AFL1016
Flight time N/A
Altitude 36000
Route MAKOG3J MAKOG T821 ROGID M856 GIKUR T458 BEPOL BEPOL1W
Aircraft A320/M-SDE3FGHIRWY/LB1

Departure

Time 2026-05-08 20:46
Airport Talagi Airport (ULAA)

Arrival

Time N/A
Airport Pulkovo Airport (ULLI)
Time Latitude Longitude Altitude Speed Heading
2026-05-08 20:20 64.59679 40.71230 40 ft 0 kts 186°
2026-05-08 20:36 64.59689 40.71232 40 ft 4 kts 190°
2026-05-08 20:36 64.59714 40.71251 38 ft 4 kts 219°
2026-05-08 20:36 64.59725 40.71294 38 ft 2 kts 275°
2026-05-08 20:37 64.59725 40.71299 38 ft 0 kts 276°
2026-05-08 20:40 64.59725 40.71298 40 ft 0 kts 276°
2026-05-08 20:41 64.59726 40.71291 40 ft 1 kts 276°
2026-05-08 20:41 64.59729 40.71218 40 ft 8 kts 278°
2026-05-08 20:41 64.59793 40.71163 40 ft 14 kts
2026-05-08 20:41 64.59843 40.71072 38 ft 12 kts 286°
2026-05-08 20:42 64.59856 40.70846 40 ft 16 kts 276°
2026-05-08 20:42 64.59870 40.70559 39 ft 20 kts 276°
2026-05-08 20:42 64.59886 40.70227 40 ft 17 kts 276°
2026-05-08 20:42 64.59901 40.69926 40 ft 21 kts 276°
2026-05-08 20:43 64.59916 40.69601 40 ft 19 kts 276°
2026-05-08 20:43 64.59931 40.69300 40 ft 17 kts 276°
2026-05-08 20:43 64.59942 40.69085 37 ft 8 kts 285°
2026-05-08 20:43 64.59998 40.69039 40 ft 11 kts
2026-05-08 20:44 64.60023 40.69044 40 ft 0 kts
2026-05-08 20:44 64.60026 40.69044 40 ft 0 kts
2026-05-08 20:44 64.60040 40.69047 40 ft 5 kts
2026-05-08 20:45 64.60090 40.69061 39 ft 10 kts
2026-05-08 20:45 64.60149 40.69151 36 ft 13 kts 76°
2026-05-08 20:45 64.60146 40.69256 37 ft 0 kts 95°
2026-05-08 20:46 64.60145 40.69290 37 ft 16 kts 95°
2026-05-08 20:46 64.60101 40.70202 36 ft 94 kts 97°
2026-05-08 20:46 64.60004 40.72219 41 ft 153 kts 95°
2026-05-08 20:46 64.59870 40.74730 670 ft 158 kts 96°
2026-05-08 20:47 64.59736 40.77249 1483 ft 158 kts 92°
2026-05-08 20:47 64.59598 40.79774 2361 ft 155 kts 92°
2026-05-08 20:47 64.59193 40.82127 3108 ft 166 kts 132°
2026-05-08 20:47 64.58117 40.83266 3693 ft 182 kts 176°
2026-05-08 20:48 64.56872 40.82424 4004 ft 202 kts 221°
2026-05-08 20:48 64.55981 40.79758 4265 ft 221 kts 241°
2026-05-08 20:48 64.55119 40.76552 4640 ft 246 kts 241°
2026-05-08 20:48 64.54178 40.73045 5247 ft 262 kts 240°
2026-05-08 20:49 64.53190 40.69413 6141 ft 268 kts 240°
2026-05-08 20:49 64.52178 40.65728 7067 ft 271 kts 240°
2026-05-08 20:49 64.51152 40.62014 7957 ft 275 kts 240°
2026-05-08 20:49 64.50121 40.58306 8865 ft 278 kts 240°
2026-05-08 20:50 64.49061 40.54512 9778 ft 281 kts 240°
2026-05-08 20:50 64.47992 40.50679 10577 ft 288 kts 240°
2026-05-08 20:50 64.46863 40.46622 10869 ft 312 kts 240°
2026-05-08 20:50 64.45656 40.42293 11429 ft 323 kts 240°
2026-05-08 20:51 64.44419 40.37883 12247 ft 327 kts 240°
2026-05-08 20:51 64.43168 40.33451 13108 ft 329 kts 240°
2026-05-08 20:51 64.41910 40.28998 13945 ft 331 kts 240°
2026-05-08 20:51 64.40660 40.24569 14688 ft 334 kts 240°
2026-05-08 20:52 64.39384 40.20041 15394 ft 337 kts 240°
2026-05-08 20:52 64.38095 40.15479 16107 ft 340 kts 240°
2026-05-08 20:52 64.36791 40.10877 16774 ft 344 kts 240°
2026-05-08 20:52 64.35471 40.06229 17461 ft 347 kts 240°
2026-05-08 20:53 64.34130 40.01533 18129 ft 350 kts 240°
2026-05-08 20:53 64.32797 39.96871 18786 ft 354 kts 240°
2026-05-08 20:53 64.31415 39.92043 19353 ft 358 kts 240°
2026-05-08 20:53 64.30057 39.87300 19899 ft 361 kts 240°
2026-05-08 20:54 64.28659 39.82425 20449 ft 365 kts 240°
2026-05-08 20:54 64.27249 39.77519 20986 ft 369 kts 240°
2026-05-08 20:54 64.25816 39.72552 21522 ft 373 kts 240°
2026-05-08 20:54 64.24368 39.67541 22040 ft 377 kts 240°
2026-05-08 20:55 64.22926 39.62559 22551 ft 381 kts 240°
2026-05-08 20:55 64.21450 39.57462 23070 ft 385 kts 240°
2026-05-08 20:55 64.19953 39.52307 23581 ft 388 kts 240°
2026-05-08 20:55 64.18437 39.47112 24027 ft 392 kts 240°
2026-05-08 20:56 64.16904 39.41895 24458 ft 395 kts 240°
2026-05-08 20:56 64.15380 39.36715 24883 ft 397 kts 240°
2026-05-08 20:56 64.13838 39.31428 25321 ft 399 kts 242°
2026-05-08 20:56 64.12736 39.25681 25723 ft 392 kts 261°
2026-05-08 20:57 64.12324 39.19521 26130 ft 390 kts 267°
2026-05-08 20:57 64.12017 39.13326 26572 ft 392 kts 268°
2026-05-08 20:57 64.11714 39.07114 26989 ft 394 kts 268°
2026-05-08 20:57 64.11407 39.00843 27402 ft 397 kts 268°
2026-05-08 20:58 64.11096 38.94551 27809 ft 399 kts 268°
2026-05-08 20:58 64.10786 38.88300 28193 ft 401 kts 268°
2026-05-08 20:58 64.10467 38.81911 28601 ft 404 kts 268°
2026-05-08 20:58 64.09914 38.75544 28986 ft 413 kts 255°
2026-05-08 20:59 64.08568 38.69652 29349 ft 426 kts 237°
2026-05-08 20:59 64.06586 38.64514 29694 ft 433 kts 232°
2026-05-08 20:59 64.04539 38.59522 30005 ft 436 kts 232°
2026-05-08 20:59 64.02440 38.54481 30344 ft 439 kts 232°
2026-05-08 21:00 64.00324 38.49429 30624 ft 442 kts 232°
2026-05-08 21:00 63.98188 38.44346 30899 ft 444 kts 232°
2026-05-08 21:00 63.96044 38.39236 31169 ft 446 kts 232°
2026-05-08 21:00 63.93898 38.34112 31437 ft 448 kts 232°
2026-05-08 21:01 63.91774 38.29028 31704 ft 450 kts 232°
2026-05-08 21:01 63.89590 38.23814 32068 ft 449 kts 232°
2026-05-08 21:01 63.87460 38.18748 32431 ft 449 kts 232°
2026-05-08 21:01 63.85303 38.13631 32796 ft 449 kts 232°
2026-05-08 21:02 63.83144 38.08531 33117 ft 448 kts 232°
2026-05-08 21:02 63.80976 38.03423 33504 ft 447 kts 232°
2026-05-08 21:02 63.78813 37.98345 33888 ft 446 kts 232°
2026-05-08 21:02 63.76657 37.93288 34264 ft 446 kts 232°
2026-05-08 21:03 63.74505 37.88241 34575 ft 446 kts 232°
2026-05-08 21:03 63.72354 37.83205 34879 ft 445 kts 232°
2026-05-08 21:03 63.70228 37.78239 35184 ft 445 kts 231°
2026-05-08 21:03 63.68069 37.73218 35488 ft 445 kts 231°
2026-05-08 21:04 63.65915 37.68222 35765 ft 444 kts 231°
2026-05-08 21:04 63.63766 37.63237 36052 ft 444 kts 231°
2026-05-08 21:04 63.61615 37.58254 36293 ft 444 kts 231°
2026-05-08 21:05 63.57327 37.48375 36366 ft 439 kts 231°
2026-05-08 21:05 63.53064 37.38606 36371 ft 437 kts 231°
2026-05-08 21:06 63.48807 37.28866 36370 ft 437 kts 231°
2026-05-08 21:06 63.44536 37.19164 36378 ft 437 kts 231°
2026-05-08 21:07 63.40252 37.09519 36376 ft 437 kts 231°
2026-05-08 21:07 63.35967 36.99877 36350 ft 437 kts 231°
2026-05-08 21:08 63.31704 36.90330 36371 ft 436 kts 231°
2026-05-08 21:08 63.27421 36.80752 36381 ft 436 kts 231°
2026-05-08 21:09 63.23147 36.71244 36385 ft 436 kts 231°
2026-05-08 21:09 63.18791 36.61830 36385 ft 437 kts 229°
2026-05-08 21:10 63.14289 36.52848 36387 ft 438 kts 227°
2026-05-08 21:10 63.09707 36.43946 36382 ft 438 kts 227°
2026-05-08 21:11 63.05047 36.35224 36380 ft 442 kts 221°
2026-05-08 21:11 62.99998 36.27451 36377 ft 443 kts 220°
2026-05-08 21:12 62.94935 36.19797 36378 ft 443 kts 220°
2026-05-08 21:12 62.89827 36.12114 36330 ft 443 kts 221°
2026-05-08 21:13 62.84739 36.04467 36362 ft 443 kts 221°
2026-05-08 21:13 62.79685 35.96891 36373 ft 442 kts 221°
2026-05-08 21:14 62.74603 35.89291 36378 ft 441 kts 221°
2026-05-08 21:14 62.69522 35.81731 36379 ft 441 kts 220°
2026-05-08 21:15 62.64465 35.74256 36375 ft 441 kts 220°
2026-05-08 21:15 62.60229 35.68018 36351 ft 441 kts 221°
2026-05-08 21:16 62.54423 35.59491 36366 ft 440 kts 221°
2026-05-08 21:16 62.50196 35.53321 36370 ft 440 kts 221°
2026-05-08 21:17 62.45102 35.45928 36369 ft 439 kts 221°
2026-05-08 21:17 62.40023 35.38552 36368 ft 439 kts 221°
2026-05-08 21:18 62.34982 35.31273 36333 ft 438 kts 221°
2026-05-08 21:18 62.29903 35.23979 36350 ft 437 kts 221°
2026-05-08 21:19 62.24874 35.16772 36355 ft 437 kts 221°
2026-05-08 21:19 62.19821 35.09562 36357 ft 436 kts 221°
2026-05-08 21:20 62.14759 35.02375 36357 ft 436 kts 221°
2026-05-08 21:20 62.09690 34.95216 36343 ft 433 kts 221°
2026-05-08 21:21 62.04690 34.88167 36365 ft 432 kts 221°
2026-05-08 21:21 61.99654 34.81093 36370 ft 432 kts 221°